This is the latest recevied weather packets stored in our database for station/object K7DC. If no packets are shown the sender has not sent any weather packets the latest 10 day(s).
| Time | Temp. | Humidity | Pressure | Rain* | Wind** | Luminosity | Snow |
|---|---|---|---|---|---|---|---|
| 1777817939 | 20° C | 41% | 1014.6 hPa | 0 mm | - | 90 W/m² | - |
| 1777817636 | 19.44° C | 42% | 1014.8 hPa | 0 mm | - | 102 W/m² | - |
| 1777817333 | 18.89° C | 43% | 1014.5 hPa | 0 mm | - | 108 W/m² | - |
| 1777817030 | 18.33° C | 43% | 1014.5 hPa | 0 mm | - | 111 W/m² | - |
| 1777816726 | 18.33° C | 44% | 1014.5 hPa | 0 mm | - | 95 W/m² | - |
| 1777816424 | 17.78° C | 46% | 1014.4 hPa | 0 mm | - | 70 W/m² | - |
| 1777816122 | 17.78° C | 47% | 1014.3 hPa | 0 mm | - | 66 W/m² | - |
| 1777815819 | 17.22° C | 49% | 1014.4 hPa | 0 mm | - | 57 W/m² | - |
| 1777815516 | 17.22° C | 50% | 1014.3 hPa | 0 mm | - | 42 W/m² | - |
| 1777815214 | 17.78° C | 51% | 1014.4 hPa | 0 mm | - | 37 W/m² | - |
| 1777814910 | 17.78° C | 48% | 1014.4 hPa | 0 mm | - | 38 W/m² | - |
| 1777814607 | 17.78° C | 47% | 1014.2 hPa | 0 mm | - | 29 W/m² | - |
| 1777814304 | 17.78° C | 46% | 1014.4 hPa | 0 mm | - | 22 W/m² | - |
| 1777814000 | 17.78° C | 44% | 1014.2 hPa | 0 mm | - | 18 W/m² | - |
| 1777813698 | 17.78° C | 44% | 1014.2 hPa | 0 mm | - | 14 W/m² | - |
| 1777813395 | 17.78° C | 44% | 1013.9 hPa | 0 mm | - | 13 W/m² | - |
| 1777813092 | 17.22° C | 44% | 1014 hPa | 0 mm | - | 11 W/m² | - |
| 1777812790 | 17.22° C | 44% | 1014 hPa | 0 mm | - | 6 W/m² | - |
| 1777812486 | 17.22° C | 44% | 1013.8 hPa | 0 mm | - | 4 W/m² | - |
| 1777812184 | 16.67° C | 45% | 1013.9 hPa | 0 mm | - | 2 W/m² | - |
| 1777811882 | 16.67° C | 45% | 1014.2 hPa | 0 mm | - | 1 W/m² | - |
| 1777811581 | 17.22° C | 44% | 1013.9 hPa | 0 mm | - | 1 W/m² | - |
| 1777811275 | 17.22° C | 43% | 1013.7 hPa | 0 mm | - | 0 W/m² | - |
| 1777810973 | 17.22° C | 42% | 1014 hPa | 0 mm | - | 0 W/m² | - |
| 1777810670 | 17.22° C | 42% | 1013.9 hPa | 0 mm | - | 0 W/m² | - |
* Rain latest hour (hover to see other rain measurements)
** Current wind speed in m/s (hover to see current wind gust speed)